Hourly Weather Goiatuba

Today, 17 May, Monday

Time Temperature Precipitation Wind Pressure Humidity
00:00 +22°C° 0 mm 1 mps 698 mmHg 51%
01:00 +21°C° 0 mm 1 mps 698 mmHg 54%
02:00 +20°C° 0 mm 1 mps 697 mmHg 56%
03:00 +20°C° 0 mm 1 mps 697 mmHg 59%
04:00 +19°C° 0 mm 1 mps 697 mmHg 60%
05:00 +19°C° 0 mm 1 mps 697 mmHg 61%
06:00 +18°C° 0 mm 1 mps 697 mmHg 63%
07:00 +21°C° 0 mm 1 mps 698 mmHg 56%
08:00 +23°C° 0 mm 1 mps 699 mmHg 49%
09:00 +25°C° 0 mm 1 mps 700 mmHg 43%
10:00 +27°C° 0 mm 1 mps 699 mmHg 38%
11:00 +29°C° 0 mm 2 mps 699 mmHg 33%
12:00 +31°C° 0 mm 2 mps 699 mmHg 28%
13:00 +31°C° 0 mm 2 mps 699 mmHg 27%
14:00 +31°C° 0 mm 3 mps 698 mmHg 25%
15:00 +31°C° 0 mm 3 mps 697 mmHg 24%
16:00 +30°C° 0 mm 3 mps 697 mmHg 27%
17:00 +28°C° 0 mm 2 mps 697 mmHg 31%
18:00 +26°C° 0 mm 2 mps 697 mmHg 34%
19:00 +25°C° 0 mm 2 mps 697 mmHg 36%
20:00 +25°C° 0 mm 2 mps 697 mmHg 37%
21:00 +24°C° 0 mm 2 mps 698 mmHg 38%
22:00 +23°C° 0 mm 2 mps 697 mmHg 41%
23:00 +21°C° 0 mm 2 mps 697 mmHg 43%

Tomorrow, 18 May, Tuesday

Time Temperature Precipitation Wind Pressure Humidity
00:00 +21°C° 0 mm 1 mps 697 mmHg 45%
01:00 +20°C° 0 mm 1 mps 697 mmHg 46%
02:00 +20°C° 0 mm 1 mps 696 mmHg 48%
03:00 +19°C° 0 mm 1 mps 696 mmHg 49%
04:00 +19°C° 0 mm 1 mps 696 mmHg 50%
05:00 +19°C° 0 mm 1 mps 696 mmHg 51%
06:00 +18°C° 0 mm 1 mps 697 mmHg 53%
07:00 +20°C° 0 mm 1 mps 697 mmHg 48%
08:00 +23°C° 0 mm 1 mps 698 mmHg 43%
09:00 +25°C° 0 mm 1 mps 699 mmHg 38%
10:00 +27°C° 0 mm 1 mps 699 mmHg 34%
11:00 +29°C° 0 mm 1 mps 699 mmHg 30%
12:00 +31°C° 0 mm 1 mps 699 mmHg 26%
13:00 +31°C° 0 mm 1 mps 698 mmHg 24%
14:00 +31°C° 0 mm 1 mps 697 mmHg 23%
15:00 +32°C° 0 mm 1 mps 697 mmHg 22%
16:00 +29°C° 0 mm 1 mps 696 mmHg 26%
17:00 +27°C° 0 mm 1 mps 696 mmHg 30%
18:00 +25°C° 0 mm 1 mps 696 mmHg 34%
19:00 +24°C° 0 mm 1 mps 696 mmHg 35%
20:00 +23°C° 0 mm 1 mps 697 mmHg 37%
21:00 +20°C° 0 mm 0 mps 697 mmHg 38%
22:00 +19°C° 0 mm 0 mps 697 mmHg 40%
23:00 +19°C° 0 mm 0 mps 697 mmHg 41%

Day after tomorrow, 19 May, Wednesday

Time Temperature Precipitation Wind Pressure Humidity
00:00 +18°C° 0 mm 0 mps 696 mmHg 42%
01:00 +20°C° 0 mm 1 mps 696 mmHg 44%
02:00 +19°C° 0 mm 1 mps 696 mmHg 45%
03:00 +19°C° 0 mm 1 mps 696 mmHg 46%
04:00 +19°C° 0 mm 1 mps 696 mmHg 47%
05:00 +18°C° 0 mm 1 mps 696 mmHg 48%
06:00 +18°C° 0 mm 1 mps 696 mmHg 49%
07:00 +21°C° 0 mm 1 mps 697 mmHg 44%
08:00 +23°C° 0 mm 1 mps 698 mmHg 38%
09:00 +26°C° 0 mm 1 mps 699 mmHg 33%
10:00 +28°C° 0 mm 1 mps 699 mmHg 29%
11:00 +30°C° 0 mm 1 mps 699 mmHg 25%
12:00 +33°C° 0 mm 1 mps 699 mmHg 21%
13:00 +33°C° 0 mm 1 mps 698 mmHg 20%
14:00 +33°C° 0 mm 1 mps 697 mmHg 19%
15:00 +33°C° 0 mm 1 mps 696 mmHg 18%
16:00 +30°C° 0 mm 1 mps 696 mmHg 22%
17:00 +28°C° 0 mm 1 mps 696 mmHg 26%
18:00 +25°C° 0 mm 1 mps 695 mmHg 30%
19:00 +24°C° 0 mm 1 mps 696 mmHg 32%
20:00 +23°C° 0 mm 1 mps 696 mmHg 34%
21:00 +22°C° 0 mm 1 mps 696 mmHg 36%
22:00 +22°C° 0 mm 1 mps 696 mmHg 37%
23:00 +21°C° 0 mm 1 mps 696 mmHg 38%

20 May, Thursday

Time Temperature Precipitation Wind Pressure Humidity
00:00 +21°C° 0 mm 1 mps 696 mmHg 39%
01:00 +20°C° 0 mm 1 mps 696 mmHg 40%
02:00 +20°C° 0 mm 1 mps 695 mmHg 41%
03:00 +20°C° 0 mm 1 mps 695 mmHg 41%
04:00 +19°C° 0 mm 1 mps 695 mmHg 43%
05:00 +19°C° 0 mm 1 mps 695 mmHg 44%
06:00 +18°C° 0 mm 1 mps 696 mmHg 45%
07:00 +21°C° 0 mm 1 mps 697 mmHg 40%
08:00 +24°C° 0 mm 1 mps 697 mmHg 35%
09:00 +26°C° 0 mm 1 mps 698 mmHg 30%
10:00 +28°C° 0 mm 2 mps 698 mmHg 26%
11:00 +31°C° 0 mm 2 mps 698 mmHg 22%
12:00 +34°C° 0 mm 2 mps 698 mmHg 18%
13:00 +34°C° 0 mm 2 mps 698 mmHg 18%
14:00 +33°C° 0 mm 1 mps 697 mmHg 17%
15:00 +34°C° 0 mm 1 mps 696 mmHg 17%
16:00 +31°C° 0 mm 1 mps 696 mmHg 20%
17:00 +29°C° 0 mm 1 mps 696 mmHg 24%
18:00 +26°C° 0 mm 1 mps 695 mmHg 27%
19:00 +25°C° 0 mm 1 mps 695 mmHg 29%
20:00 +24°C° 0 mm 1 mps 696 mmHg 31%
21:00 +23°C° 0 mm 1 mps 696 mmHg 32%
22:00 +22°C° 0 mm 1 mps 696 mmHg 33%
23:00 +22°C° 0 mm 1 mps 696 mmHg 34%

21 May, Friday

Time Temperature Precipitation Wind Pressure Humidity
00:00 +22°C° 0 mm 1 mps 695 mmHg 35%
01:00 +21°C° 0 mm 1 mps 695 mmHg 38%
02:00 +21°C° 0 mm 1 mps 695 mmHg 40%
03:00 +20°C° 0 mm 1 mps 695 mmHg 42%
04:00 +20°C° 0 mm 1 mps 695 mmHg 44%
05:00 +19°C° 0 mm 2 mps 695 mmHg 46%
06:00 +18°C° 0 mm 2 mps 695 mmHg 48%
07:00 +21°C° 0 mm 2 mps 696 mmHg 44%
08:00 +25°C° 0 mm 2 mps 697 mmHg 39%
09:00 +27°C° 0 mm 2 mps 697 mmHg 35%
10:00 +29°C° 0 mm 2 mps 697 mmHg 31%
11:00 +32°C° 0 mm 2 mps 697 mmHg 26%
12:00 +35°C° 0 mm 3 mps 697 mmHg 22%
13:00 +35°C° 0 mm 2 mps 696 mmHg 21%
14:00 +35°C° 0 mm 2 mps 696 mmHg 20%
15:00 +36°C° 0 mm 2 mps 695 mmHg 18%
16:00 +32°C° 0 mm 2 mps 695 mmHg 22%
17:00 +30°C° 0 mm 1 mps 694 mmHg 25%
18:00 +27°C° 0 mm 1 mps 694 mmHg 29%
19:00 +26°C° 0 mm 1 mps 694 mmHg 31%
20:00 +25°C° 0 mm 1 mps 695 mmHg 33%
21:00 +24°C° 0 mm 1 mps 695 mmHg 36%
22:00 +24°C° 0 mm 2 mps 695 mmHg 37%
23:00 +23°C° 0 mm 2 mps 695 mmHg 39%

22 May, Saturday

Time Temperature Precipitation Wind Pressure Humidity
00:00 +23°C° 0 mm 2 mps 695 mmHg 41%
01:00 +21°C° 0 mm 2 mps 695 mmHg 42%
02:00 +21°C° 0 mm 2 mps 695 mmHg 44%
03:00 +22°C° 0 mm 1 mps 694 mmHg 46%
04:00 +22°C° 0 mm 1 mps 694 mmHg 47%
05:00 +21°C° 0 mm 1 mps 695 mmHg 49%
06:00 +21°C° 0 mm 1 mps 695 mmHg 50%
07:00 +23°C° 0 mm 2 mps 696 mmHg 46%
08:00 +26°C° 0 mm 2 mps 696 mmHg 41%
09:00 +28°C° 0 mm 2 mps 697 mmHg 37%
10:00 +30°C° 0 mm 3 mps 697 mmHg 33%
11:00 +33°C° 0 mm 3 mps 697 mmHg 29%
12:00 +35°C° 0 mm 4 mps 697 mmHg 25%
13:00 +36°C° 0 mm 3 mps 697 mmHg 24%
14:00 +36°C° 0 mm 3 mps 696 mmHg 23%
15:00 +36°C° 0 mm 3 mps 696 mmHg 22%
16:00 +34°C° 0 mm 3 mps 695 mmHg 26%
17:00 +31°C° 0 mm 2 mps 695 mmHg 30%
18:00 +29°C° 0 mm 1 mps 694 mmHg 34%
19:00 +28°C° 0 mm 2 mps 695 mmHg 39%
20:00 +27°C° 0 mm 2 mps 696 mmHg 44%
21:00 +26°C° 0 mm 2 mps 696 mmHg 49%
22:00 +25°C° 0.1 mm 2 mps 696 mmHg 56%
23:00 +24°C° 0.1 mm 3 mps 696 mmHg 63%
Show more